Flag for Germany Weather past 2 weeks in Backnang, Baden-Württemberg, Germany

Now
43 °F

Drizzle. Overcast.


Feels Like: 39 °F
Forecast: 36 / 46 °F
Wind: 6 mph from West

Location: Oehringen

Current Time: Dec 21, 2014 at 6:43:20 PM

Latest Report: Dec 21, 2014 at 6:00 PM


Visibility: 22 mi

Pressure: 30.46 "Hg

Humidity: 73%

Dew point: 35 °F

Location of BacknangLocation

Historic Weather in Backnang — Graph

°F

Backnang temperature yesterday

Maximum temperature yesterday: 46 °F (at 12:00 AM)
Minimum temperature yesterday: 38 °F (at 6:00 AM)
Average temperature yesterday: 42 °F

Past Weeks' High & Low Weather Summary

 TemperatureHumidityPressure
High53 °F (Dec 18, 8:00 PM)100% (Dec 15, 4:00 AM)30.54 "Hg (Dec 15, 4:00 AM)
Low27 °F (Dec 9, 6:00 AM)57% (Dec 13, 10:00 AM)29.72 "Hg (Dec 12, 6:00 PM)
Average42 °F87%30.09 "Hg
* Reported Dec 6 5:00 PM — Dec 21 5:00 PM, Backnang, Weather by CustomWeather, © 2014

Note: Actual official high and low records may vary slightly from our data, if they occured in-between our weather recording intervals... More about our weather records

Advertising

Backnang weather history for previous 24 hours

 ConditionsComfort  
Time TempWeatherWind HumidityBarometerVisibility
5:00 PM
Dec 21
43 °FOvercast.6 mph71%30.47 "Hg34 mi
4:00 PM43 °FOvercast.6 mph73%30.47 "Hg34 mi
3:00 PM43 °FOvercast.7 mph73%30.47 "Hg34 mi
2:00 PM43 °FOvercast.6 mph77%30.50 "Hg28 mi
1:00 PM43 °FOvercast.6 mph80%30.51 "Hg25 mi
12:00 PM42 °FOvercast.5 mph85%30.53 "HgN/A
11:00 AM40 °FOvercast.5 mph88%30.54 "Hg15 mi
10:00 AM40 °FOvercast.5 mph88%30.53 "Hg14 mi
9:00 AM39 °FOvercast.3 mph89%30.53 "Hg16 mi
8:00 AM40 °FOvercast.3 mph90%30.51 "Hg19 mi
7:00 AM39 °FOvercast.3 mph91%30.51 "Hg18 mi
6:00 AM38 °FPassing clouds.3 mph92%30.50 "Hg22 mi
5:00 AM38 °FPassing clouds.7 mph93%30.49 "Hg17 mi
4:00 AM38 °FOvercast.3 mph95%30.48 "Hg10 mi
3:00 AM37 °FOvercast.5 mph96%30.45 "Hg14 mi
2:00 AM38 °FLight rain. Overcast.5 mph95%30.43 "Hg6 mi
1:00 AM37 °FOvercast.5 mph96%30.42 "Hg25 mi
12:00 AM39 °FLight rain. Low clouds.7 mph90%30.39 "Hg5 mi
11:00 PM
Dec 20
41 °FOvercast.8 mph85%30.35 "Hg25 mi
10:00 PM42 °FOvercast.10 mph79%30.32 "Hg43 mi
9:00 PM42 °FOvercast.10 mph82%30.31 "Hg31 mi
8:00 PM41 °FOvercast.9 mph81%30.30 "Hg37 mi
7:00 PM41 °FOvercast.10 mph85%30.25 "Hg25 mi
6:00 PM40 °FLight rain. Overcast.8 mph93%30.24 "Hg16 mi
Weather by CustomWeather, © 2014

See weather overviewHow to use our weather pages